COSMOS 1275 DEB, 42229

Orbit data source: Space-Track

COSMOS 1275 DEB, 42229 is space debris in LEO originally from a launch on Thu, 04 Jun 1981 UTC launched from the Plesetsk Missile And Space Complex (PKMTR). Debris objects in space refer to the collection of defunct objects orbiting the Earth. Examples of debris include non-operational satellites, rocket bodies, and fragments generated from explosions, collisions, or faulty payload assembly.

Loading next visibility...
Identifier
42229, 1981-053UV
Orbit
LEO
Country
Flag of CISCIS
Related business
Manufacturer
Unknown
Mission
Spacecraft
Bus & Motor
Unknown
Mass
Unknown
Launch date (UTC)
1981-06-04 (45 years ago)
Launch vehicle
Unknown
Launch site
Plesetsk Missile And Space Complex (PKMTR)
Object type
Payload
Rocket body
Debris
Shape & HBR
Unknown shape, 0.1 m
Radar Cross Section
Small (<0.1 m²)

Expand to show TLE details & history
Last TLE update: 1 week ago

TLE from 1 week ago
0 COSMOS 1275 DEB
1 42229U 81053UV  25345.15855258  .00001156  00000-0  15965-2 0  9995
2 42229  83.0169 142.4549 0216853  37.2806 324.3164 13.48277459591646
Epoch: 2025-12-11T03:48Z
TLE epoch observation values (Epoch: 2025-12-11T03:48:18.942Z)
Latitude
-0.00005°
Longitude
5.25743°
Altitude
951.325 km
Speed
7.44 km/s
True Right ascension
09h 29m 49s
True Declination
0° 00' 00"
Sunlit
Object was in daylight at epoch
Visualization orbit readout
Latitude
Unknown
Longitude
Unknown
Altitude
Unknown
Speed
Unknown
Apparent Right ascension
Unknown
Apparent Declination
Unknown
Sunlit
N/A
Visualization observer readout
Local Sidereal Time
14:24:43
Azimuth
Unknown
Elevation
Unknown
Doppler factor
Unknown
Orbital elements
Apogee altitude
1,237.425 km
Perigee altitude
914.144 km
Semi-major axis
7,453.921 km
Eccentricity
0.02169
Inclination
83.0169°
RAAN
142.4549°
Arg. of periapsis
37.2806°
True anomaly
322.83447°
Mean anomaly
324.3164°
Eccentric anomaly
323.57872°
Mean motion
3.37261 °/min
Orbital period
106.74 mins
BSTAR
0.0015965
Loading maneuver chart data...
Computing Atmospheric mass density...
Loading historical data...
Loading historical data...
Loading historical data...
Loading historical data...
Loading historical data...
Loading historical data...
Loading historical data...

Documentation

Showing up to 5 results
|